Regional Weather Roundup
Issued by NWS Green Bay, WI

Home | Current Version | Previous Version | Text Only | Print | Product List | Glossary On
Versions: 1 2 3 4 5 6 7 8 9 10 11 12 13 14 15 16 17 18 19 20 21 22 23 24 25 26 27 28 29 30 31 32 33 34 35 36 37 38 39 40 41 42 43 44 45 46 47 48 49 50
000
ASUS43 KGRB 190810
RWRGRB

NORTH-CENTRAL AND NORTHEAST WISCONSIN REGIONAL WEATHER ROUNDUP
NATIONAL WEATHER SERVICE GREEN BAY WI
200 AM CST FRI DEC 19 2014

WIZ005-009-010>012-018-019-190900-
NORTH CENTRAL WISCONSIN

CITY           SKY/WX    TMP DP  RH WIND       PRES   REMARKS
IRONWOOD       MOCLDY     3   0  85 SE3       30.23R
MANITOWISH WTR CLOUDY     1  -1  88 CALM      30.23R
ARBOR VITAE      N/A      5   1  85 CALM      30.23R
EAGLE RIVER    CLEAR      3  -2  81 CALM      30.23R
LAND O LAKES   PTCLDY    -3  -7  83 CALM      30.23R
RHINELANDER    CLOUDY     4   0  83 CALM      30.23R
PHILLIPS       CLOUDY    17  15  93 CALM      30.23S
ANTIGO         PTCLDY    10   8  92 CALM      30.24R
TOMAHAWK       MOCLDY     8   6  89 CALM      30.24S
MERRILL        PTCLDY    10   8  92 CALM      30.25S
$$

WIZ013-073-190900-
NORTHEAST WISCONSIN

CITY           SKY/WX    TMP DP  RH WIND       PRES   REMARKS
IRON MOUNTAIN  PTCLDY     3  -1  83 N3        30.24R
MARINETTE      CLEAR     16  12  86 NW3       30.27R
OCONTO         PTCLDY    15  15  98 CALM      30.29R
$$

WIZ017-030-035>037-045-190900-
CENTRAL WISCONSIN

CITY           SKY/WX    TMP DP  RH WIND       PRES   REMARKS
MEDFORD        CLOUDY    20  19  93 CALM      30.23S
WAUSAU         CLEAR     17  14  88 NW5       30.24S WCI  10
MOSINEE        CLEAR     18  18 100 NW5       30.26S
MARSHFIELD     CLOUDY    24  19  81 CALM      30.25S
WISC RAPIDS    CLOUDY    23  19  85 CALM      30.28S
STEVENS POINT  CLEAR     10   7  89 CALM      30.27R
WAUPACA        CLEAR     18  15  88 CALM      30.28R
SHAWANO        CLEAR     17  14  89 CALM      30.28R
CLINTONVILLE   CLEAR     18  16  93 CALM      30.27R
$$

WIZ038-039-048-051-190900-
FOX VALLEY

CITY           SKY/WX    TMP DP  RH WIND       PRES   REMARKS
NWS GREEN BAY  CLEAR     18  15  88 CALM      30.28R
APPLETON       CLEAR     18  18 100 W8        30.27R WCI   7
OSHKOSH        CLEAR     20  16  84 W6        30.27R
FOND DU LAC    CLEAR     17  13  84 CALM      30.28R
$$

WIZ022-050-052-190900-
EAST CENTRAL WISCONSIN

CITY           SKY/WX    TMP DP  RH WIND       PRES   REMARKS
STURGEON BAY   CLEAR     21  14  73 CALM      30.27R
MANITOWOC      CLOUDY    25  22  88 NW8       30.27R
SHEBOYGAN      CLOUDY    23  18  81 NW8       30.26R
$$

LMZ563-521-522-541>543-190900-
LAKESHORE

STATION/POSITION TIME  TEMP    WIND        PRES    VSBY  WAVE
                       AIR SEA DIR/SP/G                  HT/PER
                 (UTC) (F)     (DEG/KT/KT) (MB)    (MI)  (FT/S)
SHEBOYGAN LKSHOR 0800   25 34  280/  9/ 10 1026.1R
KEWAUNEE LKSHORE 0800   23     300/  6/ 10 1023.9R
ALGOMA MARINA    0700          340/  9/ 10   N/A
NORTHPORT PIER   0800   27      20/  6/  7 1024.4S
CHAMBERS ISLAND  0800   26     330/  8/  9 1024.7R
MENOMINEE LKSHOR 0800   20     290/  5/  8 1025.7R
$$


USA.gov is the U.S. government's official web portal to all federal, state and local government web resources and services.